{"data":{"norad_id":60903,"epoch":"2026-09-21T22:55:30.645120Z","epoch_age_seconds":62731,"freshness":"FRESH","line1":"1 60903U 24154A   26264.95521580 -.00000840  00000+0 -20722-5 0  9990","line2":"2 60903  53.1600 243.4883 0001080  86.3345 273.7797 15.69708278119348","mean_motion":15.69708278,"eccentricity":0.000108,"inclination_deg":53.16,"raan_deg":243.4883,"arg_perigee_deg":86.3345,"mean_anomaly_deg":273.7797,"bstar":-2.0722e-6,"rev_number":11934,"period_min":91.736790853568,"perigee_km":359.0039883119,"apogee_km":360.45936794638,"semimajor_km":6737.8686781291,"source":"CELESTRAK","updated_at":"2026-09-22T09:00:49.282035Z"}}